User: anonymous   Login
Location: Caracas
(10.5033°N, 66.8422°W)
Time: 15:21:12
(UTC-04:00)
Language:

Tiangong 2 - Orbit

View from above orbital plane
View from above orbital plane
View from above satellite
View from above satellite

Ground track
Ground track

The orbit data is extracted from the following two-line orbital elements,

1 41765U 16057A   18052.47001157  .00005287  00000-0  67068-4 0  9996
2 41765  42.7855 312.6508 0003107 196.0608 164.1114 15.60431856 81907
Epoch (UTC): 21 February 2018 11:16:49
Eccentricity: 0.0003107
inclination: 42.7855°
perigee height: 384 km
apogee height: 388 km
right ascension of ascending node: 312.6508°
argument of perigee: 196.0608°
revolutions per day: 15.60431856
mean anomaly at epoch: 164.1114°
orbit number at epoch: 8190

The dashed part of the orbit path shows where the satellite is in the earth's shadow,  

DLR